NVS-01 (IRNSS-1J)

Last updated on Tue Sep 22 2026 00:03:16 GMT+0000 (Coordinated Universal Time)

1 56759U 23076A 26264.58605111 -.00000342 00000+0 00000+0 0 9995 2 56759 1.9471 239.8790 0005879 0.7090 100.4309 1.00273121 12084
UTC large
Height (km)
Speed (km/s)
/
Latitude / Longitude
Inclination (degrees)
Orbital Period (minutes)
Azimuth
Elevation
Range (km)
Doppler Factor

Next 0 passes for location: London (51.5072 / 0.1276)

No passes found over London.
NVS-01 (IRNSS-1J)